COSMOS 2251 DEB, 34446

Orbit data source: Space-Track

COSMOS 2251 DEB, 34446 is space debris in LEO originally from a launch on Wed, 16 Jun 1993 UTC launched from the Plesetsk Missile And Space Complex (PKMTR). The debris from Iridium 33, an American commercial communications satellite, has been tracked extensively since its accidental collision with the defunct Russian satellite Cosmos 2251 in 2009. This event, occurring at high speed in low Earth orbit (LEO), generated thousands of pieces of space debris, significantly increasing the risk of further collisions. The Iridium 33 debris cloud has impacted space traffic management and orbital debris mitigation strategies, making it a subject of ongoing study in space situational awareness.

Loading next visibility...
Identifier
34446, 1993-036SP
Orbit
LEO
Country
Flag of CISCIS
Related business
Manufacturer
Unknown
Mission
Spacecraft
Bus & Motor
Unknown
Mass
Unknown
Launch date (UTC)
1993-06-16 (33 years ago)
Launch vehicle
Unknown
Launch site
Plesetsk Missile And Space Complex (PKMTR)
Object type
Payload
Rocket body
Debris
Shape & HBR
Unknown shape, 0.1 m
Radar Cross Section
Medium (>0.1 m² and <1 m²)

Expand to show TLE details & history
Last TLE update: 22 hours ago

TLE from 22 hours ago
0 COSMOS 2251 DEB
1 34446U 93036SP  26207.37883742  .00000443  00000-0  12082-3 0  9998
2 34446  74.0424 354.0531 0049944  73.6352 287.0291 14.49565009919631
Epoch: 2026-07-26T09:05Z
TLE epoch observation values (Epoch: 2026-07-26T09:05:31.553Z)
Latitude
Longitude
-86.40599°
Altitude
719.466 km
Speed
7.501 km/s
True Right ascension
23h 36m 12s
True Declination
0° 00' 00"
Sunlit
Object was in full shadow at epoch
Visualization orbit readout
Latitude
Unknown
Longitude
Unknown
Altitude
Unknown
Speed
Unknown
Apparent Right ascension
Unknown
Apparent Declination
Unknown
Sunlit
N/A
Visualization observer readout
Local Sidereal Time
20:30:22
Azimuth
Unknown
Elevation
Unknown
Doppler factor
Unknown
Orbital elements
Apogee altitude
760.152 km
Perigee altitude
689.204 km
Semi-major axis
7,102.815 km
Eccentricity
0.00499
Inclination
74.0424°
RAAN
354.0531°
Arg. of periapsis
73.6352°
True anomaly
286.48088°
Mean anomaly
287.0291°
Eccentric anomaly
286.75509°
Mean motion
3.62575 °/min
Orbital period
99.29 mins
BSTAR
0.00012082
Loading maneuver chart data...
Computing Atmospheric mass density...

Documentation

Showing up to 5 results
|